Lexington Weather

Lexington, Massachusetts, USA

40°F
3/30/2020 9:36am 
  • Lexington Conditions: Mist, Overcast
  • Temperature: 40.1°F / 4.5°CWarmer 0.7°F than last hour.
  • Dew Point: 39.4°FIncreased 0.7°Fsince last hour.
  • Relative Humidity: 97
  • Wind: Wind from NE NE 2 mph, 10-min avg: 2 mph, gust: 6 mph
  • Barometer: 29.97 in Steady
  • Visibility: 2 miles
  • Rain Today: 0.02 in
  •   

Regional Weather Roundup
for Boston / Norton, MA

        
000
ASUS41 KBOX 290504
RWRBOX

REGIONAL WEATHER ROUNDUP
NATIONAL WEATHER SERVICE BOSTON/NORTON MA
100 AM EDT SUN MAR 29 2020

NOTE:  "FAIR" INDICATES FEW OR NO CLOUDS BELOW 12,000 FEET WITH NO 
SIGNIFICANT WEATHER AND/OR OBSTRUCTIONS TO VISIBILITY.

MAZALL-290600-
EASTERN MASSACHUSETTS
  
CITY           SKY/WX    TMP DP  RH WIND       PRES   REMARKS
BOSTON         LGT RAIN  42  40  92 E6        30.17F                  
BEVERLY        LGT RAIN  43  39  86 SE5       30.17F                  
LAWRENCE       LGT RAIN  43  41  93 CALM      30.18F                  
BEDFORD        LGT RAIN  44  40  85 E7        30.15F                  
BLUE HILL        N/A     40  40 100 E10       30.13F                  
NORWOOD        CLOUDY    44  41  89 E3        30.15F                  
MARSHFIELD     CLOUDY    45  43  93 SE6       30.16F                  
PLYMOUTH       LGT RAIN  42  41  96 E6        30.16S                  
TAUNTON        LGT RAIN  43  41  93 E5        30.15F FOG              
NEW BEDFORD    LGT RAIN  42  42 100 E9        30.14F FOG              
$$

MAZALL-290600-
CAPE COD AND THE ISLANDS
  
CITY           SKY/WX    TMP DP  RH WIND       PRES   REMARKS
FALMOUTH       DRIZZLE   43  41  93 E6        30.17S                  
HYANNIS        LGT RAIN  44  41  89 VRB5      30.15F FOG              
CHATHAM        LGT RAIN  43  39  86 SE5       30.18F                  
PROVINCETOWN   LGT RAIN  42  41  96 SE7       30.18F                  
NANTUCKET      RAIN      44  42  93 E15       30.15F FOG              
MARTHAS VNYRD  LGT RAIN  44  42  93 E12       30.13F FOG              
$$
 
MAZALL-290600-
CENTRAL AND WESTERN MASSACHUSETTS
  
CITY           SKY/WX    TMP DP  RH WIND       PRES   REMARKS
WORCESTER      LGT RAIN  41  39  93 NE9       30.12F VSB 1/4          
FITCHBURG      LGT RAIN  43  40  89 CALM      30.16F FOG              
ORANGE         CLOUDY    43  41  93 CALM      30.14F                  
SPRINGFIELD    CLOUDY    42  42  99 NE8       30.11F                  
WESTFIELD      LGT RAIN  40  38  93 N8        30.12F FOG              
NORTH ADAMS    LGT RAIN  42  38  85 E14G22    30.08F                  
PITTSFIELD     CLOUDY    41  38  89 E8        30.05F                  
$$
 
RIZALL-290600-
RHODE ISLAND
  
CITY           SKY/WX    TMP DP  RH WIND       PRES   REMARKS
PROVIDENCE     LGT RAIN  43  43 100 NE7       30.14F FOG              
NEWPORT        RAIN      44  41  89 E9        30.12S FOG              
BLOCK ISLAND   LGT RAIN  43  42  97 E14G22    30.10F FOG              
SMITHFIELD     LGT RAIN  42  42 100 E7        30.13F FOG              
WESTERLY       LGT RAIN  47  42  83 NE10      30.11S                  
$$
 
CTZALL-290600-
CONNECTICUT
  
CITY           SKY/WX    TMP DP  RH WIND       PRES   REMARKS
BRADLEY INTL   LGT RAIN  42  41  96 N8        30.10F FOG              
HARTFORD       LGT RAIN  44  42  93 N6        30.10F FOG              
BRIDGEPORT     LGT RAIN  46  44  93 E20       30.07R FOG              
DANBURY        LGT RAIN  44  42  93 E8        30.06F FOG              
GROTON         LGT RAIN  44  44 100 NE13      30.09S FOG              
NEW HAVEN      LGT RAIN  47  45  93 NE9       30.08S FOG              
CHESTER        LGT RAIN  43  43 100 E9        30.07F                  
MERIDEN        CLOUDY    44  42  93 E6        30.08F                  
WILLIMANTIC    LGT RAIN  44  42  93 E6        30.11F FOG              
OXFORD         LGT RAIN  43  42  97 E13G18    30.06F FOG              
$$

MEZ002-015-021-024-NHZ003-005-008-011-012-014-VTZ005-008-290600-
NORTHERN NEW ENGLAND
  
CITY           SKY/WX    TMP DP  RH WIND       PRES   REMARKS
PORTLAND ME    MOCLDY    43  34  70 E3        30.20S                  
BANGOR ME      CLOUDY    35  27  72 SE3       30.21S                  
CONCORD NH     LGT RAIN  43  36  76 E3        30.17R                  
MANCHESTER NH  LGT RAIN  44  41  89 CALM      30.15S                  
NASHUA NH      LGT RAIN  43  43 100 CALM      30.17F                  
PORTSMOUTH NH  LGT RAIN  44  37  78 CALM      30.17R                  
JAFFREY NH     LGT RAIN  41  41 100 CALM      30.13F FOG              
KEENE NH       LGT RAIN  40  39  97 CALM      30.15F                  
BURLINGTON VT  CLOUDY    47  25  42 SE5       30.10F                  
MT. WASHINGTON CLOUDY    28  -8  20 SE18        N/A  WCI  16          
$$

NYZ052-076-290600-
EASTERN NEW YORK
  
CITY           SKY/WX    TMP DP  RH WIND       PRES   REMARKS
ALBANY         DRIZZLE   43  39  86 N3        30.09F FOG              
NEW YORK CITY  LGT RAIN  45  43  93 NE17      30.04R FOG              
$$
 
ANZALL-290600-
MARINE OBSERVATIONS
  
STATION/POSITION TIME  TEMP    WIND        PRES    VSBY  WAVE
                       AIR SEA DIR/SP/G                  HT/PER
                 (UTC) (F)     (DEG/KT/KT) (MB)    (MI)  (FT/S)
BOSTON BUOY      0450   43 43  120/  8/  8 1021.1F         1/11
BUZZARDS BAY     0400           70/ 14/ 15 1021.5F
NANTUCKET SOUND  0440                        N/A           1/ 3
MASS BAY-STELLWA 0404   42 42  180/  8/ 10 1020.0F  1 7/8  1/ 3
ISLE OF SHOALS   0400   43     180/ 12/ 12 1021.5F
S OF BLOCK IS    0430      44                N/A           4/ 4
$$

......................KEY.........................
  SKY/WX - SKY CONDITION/PRESENT WEATHER
  TMP    - TEMPERATURE IN FAHRENHEIT
  DWPT   - DEWPOINT IN FAHRENHEIT
  RH     - RELATIVE HUMIDITY IN PERCENT
  WIND   - DIRECTION AND SPEED IN MPH
  PRES   - MEAN SEA LEVEL PRESSURE IN INCHES OF HG
  WCI    - WIND CHILL INDEX
  VSB    - VISIBILITY IN MILES
  HX     - HEAT INDEX
  TC     - TEMPERATURE IN CELSIUS
  VRB    - VARIABLE WIND DIRECTION
  N/A    - NOT AVAILABLE
  
      

Other recent Regional Weather Roundups

Mon Mar 30, 9:04am

Mon Mar 30, 8:04am

Mon Mar 30, 7:04am

Mon Mar 30, 6:04am

Mon Mar 30, 5:04am

Mon Mar 30, 4:04am

Mon Mar 30, 3:05am

Mon Mar 30, 2:04am

Mon Mar 30, 1:04am

Mon Mar 30, 12:04am

Sun Mar 29, 11:04pm

Sun Mar 29, 10:05pm

Sun Mar 29, 9:04pm

Sun Mar 29, 8:04pm

Sun Mar 29, 7:04pm

Sun Mar 29, 6:04pm

Sun Mar 29, 5:05pm

Sun Mar 29, 4:04pm

Sun Mar 29, 3:04pm

Sun Mar 29, 2:04pm

Sun Mar 29, 1:05pm

Sun Mar 29, 12:04pm

Sun Mar 29, 11:04am

Sun Mar 29, 10:04am

Sun Mar 29, 9:04am

Sun Mar 29, 8:04am

Sun Mar 29, 7:04am

Sun Mar 29, 6:04am

Sun Mar 29, 5:04am

Sun Mar 29, 4:04am

Sun Mar 29, 3:04am

Sun Mar 29, 2:04am

Sun Mar 29, 12:04am

Sat Mar 28, 11:05pm

Sat Mar 28, 10:04pm

Sat Mar 28, 9:04pm

Sat Mar 28, 8:04pm

Sat Mar 28, 7:04pm

Sat Mar 28, 6:04pm

Sat Mar 28, 5:05pm

Sat Mar 28, 4:04pm

Sat Mar 28, 3:04pm

Sat Mar 28, 2:04pm

Sat Mar 28, 1:05pm

Sat Mar 28, 12:04pm

Sat Mar 28, 11:04am

Sat Mar 28, 10:04am

Sat Mar 28, 9:04am

Sat Mar 28, 8:04am

Sat Mar 28, 7:04am

Sat Mar 28, 6:04am

Sat Mar 28, 5:04am

Sat Mar 28, 4:04am

Sat Mar 28, 3:04am

Sat Mar 28, 2:04am

Sat Mar 28, 1:04am

Sat Mar 28, 12:04am

Fri Mar 27, 11:04pm

Fri Mar 27, 10:04pm

Fri Mar 27, 9:04pm

Fri Mar 27, 8:04pm

Fri Mar 27, 7:05pm

Fri Mar 27, 6:04pm

Fri Mar 27, 5:05pm

Fri Mar 27, 4:05pm

Fri Mar 27, 3:04pm

Fri Mar 27, 2:05pm

Fri Mar 27, 1:04pm

Fri Mar 27, 12:04pm

Fri Mar 27, 11:04am

Fri Mar 27, 10:04am

Meta data:

ID: 8778589a-cec9-4a46-b90f-8009fe671324
Link: https://api.weather.gov/products/8778589a-cec9-4a46-b90f-8009fe671324